Skip Page Navigation
NASA JPL Caltech
NASA Logo - Jet Propulsion Laboratory + View the NASA Portal
+ Center for Near-Earth Object Studies
JPL Home Earth Solar System Stars & Galaxies Technology
JPL Solar System Dynamics
BODIES ORBITS EPHEMERIDES TOOLS PHYSICAL DATA DISCOVERY FAQ SITE MAP
IMPORTANT: The SSD Announcement email list is now available. Major changes are coming in the near future, including possible hostname and/or URL changes. To be notified of such changes, subscribe to this email list.

Please visit this page for more details.


JPL Small-Body Database Browser
Search: [ help ]  
34060 (2000 OZ45)
Classification: Main-belt Asteroid          SPK-ID: 2034060
Ephemeris | Orbit Diagram | Orbital Elements | Mission Design | Physical Parameters | Discovery Circumstances | Close-Approach Data ]

[ show orbit diagram ]
Orbital Elements at Epoch 2459000.5 (2020-May-31.0) TDB
Reference: JPL 31 (heliocentric ecliptic J2000)
 Element Value Uncertainty (1-sigma)   Units 
e .1654084767926705 4.8326e-08  
a 2.815749205113873 1.1567e-08 au
q 2.350000418065814 1.3776e-07 au
i 7.811952418193544 3.8862e-06 deg
node 293.732882041162 3.3609e-05 deg
peri 61.52024177755123 3.5591e-05 deg
M 57.66242014969509 1.0121e-05 deg
tp 2458724.073453749950
(2019-Aug-28.57345375)
4.8746e-05 TDB
period 1725.795698336538
4.72
1.0634e-05
2.911e-08
d
yr
n .2085994305971426 1.2854e-09 deg/d
Q 3.281497992161931 1.348e-08 au
  Orbit Determination Parameters
   # obs. used (total)      2114  
   data-arc span      24174 days (66.18 yr)  
   first obs. used      1953-11-29  
   last obs. used      2020-02-05  
   planetary ephem.      DE431  
   SB-pert. ephem.      SB431-N16  
   condition code      0  
   norm. resid. RMS      .46748  
   source      ORB  
   producer      Otto Matic  
   solution date      2020-Feb-23 03:20:21  

Additional Information
 Earth MOID = 1.35684 au 
 Jupiter MOID = 2.20272 au 
 T_jup = 3.285 
[ show covariance matrix ]

Ephemeris | Orbit Diagram | Orbital Elements | Mission Design | Physical Parameters | Discovery Circumstances | Close-Approach Data ]

Physical Parameter Table
Parameter Symbol Value Units Sigma Reference Notes
absolute magnitude H 12.9   n/a MPO502408  
diameter diameter 7.821 km 0.361 urn:nasa:pds:neowise_diameters_albedos::2.0[mainbelt] (http://adsabs.harvard.edu/abs/2012ApJ...759L...8M)  
geometric albedo albedo 0.240   0.041 urn:nasa:pds:neowise_diameters_albedos::2.0[mainbelt] (http://adsabs.harvard.edu/abs/2012ApJ...759L...8M)  

34060 (2000 OZ45)          Discovered 2000-Jul-30 by LINEAR at Socorro
Reference: 20020128/Numbers.arcLast Updated: 2004-04-19

[ hide close-approach data ]
Close-Approach Data   ...sorted by Date/Time (TDB)
Date/Time (TDB) Time Uncertainty
(days_HH:MM)
Body Nominal Distance (au) Minimum Distance (au) Maximum Distance (au) V-relative (km/s) V-infinity (km/s) JD (TDB) Time Uncertainty (minutes) Semi-major axis (km) Semi-minor axis (km) range-LOV angle (deg) N-sigma BP Orbit Ref. Reference Modified
1995-Nov-14 08:54 < 00:01 Thisb 0.0358966583922255 0.0358958793010154 0.035897437483524 2.42870197949536 2.4287019012882 2450035.870998492 0.760918308725245 122.984334761798 38.7804113082335 89.5637201759195 138261.052386497 T 31 CATAB v2.0f-lin.ifort 2020-Feb-23 03:20:34 2020-Feb-23 03:20

Alternate Designations
 2000 OZ45 = 1999 LE16 
Ephemeris | Orbit Diagram | Orbital Elements | Mission Design | Physical Parameters | Discovery Circumstances | Close-Approach Data ]
ABOUT SSD CREDITS/AWARDS PRIVACY/COPYRIGHT GLOSSARY LINKS
FirstGov 2020-Mar-31 22:17 UT
(server date/time)  
NASA Home Page
Site Manager:   Ryan S. Park
Webmaster  Alan B. Chamberlin